Total_Precipitation_Accumulation
0.03 0.02 0.02 0.03 0.01 0.01 0.00 0.00 0.00 0.00 0.00 0.00 0.00 0.00 0.00 0.00 0.00 0.00 0.00 0.00 0.00 0.01 0.06 0.13 0.17 0.20 0.19 0.18 0.15 0.11 0.10 0.10 0.14 0.15 0.14 0.14 0.15 0.16 0.19 0.21 0.21 0.21 0.21 0.22 0.24 0.24 0.20 0.18 0.17
0.04 0.04 0.04 0.04 0.02 0.00 0.00 0.00 0.00 0.00 0.00 0.00 0.00 0.00 0.00 0.00 0.00 0.00 0.00 0.00 0.00 0.01 0.05 0.07 0.12 0.17 0.17 0.16 0.13 0.11 0.10 0.10 0.13 0.13 0.11 0.12 0.13 0.14 0.16 0.16 0.16 0.16 0.16 0.15 0.15 0.14 0.14 0.12 0.10
0.06 0.07 0.06 0.04 0.02 0.00 0.00 0.00 0.00 0.00 0.00 0.00 0.00 0.00 0.00 0.00 0.00 0.00 0.00 0.00 0.00 0.02 0.04 0.07 0.13 0.15 0.15 0.14 0.12 0.10 0.09 0.10 0.13 0.12 0.10 0.11 0.12 0.12 0.13 0.13 0.11 0.09 0.09 0.10 0.11 0.11 0.13 0.12 0.10
0.07 0.09 0.07 0.04 0.01 0.00 0.00 0.00 0.00 0.00 0.00 0.00 0.00 0.00 0.00 0.00 0.00 0.00 0.00 0.00 0.00 0.01 0.02 0.07 0.12 0.14 0.13 0.12 0.10 0.09 0.08 0.10 0.12 0.10 0.09 0.10 0.11 0.11 0.10 0.09 0.07 0.06 0.06 0.07 0.08 0.09 0.12 0.13 0.12
0.08 0.09 0.07 0.03 0.01 0.00 0.00 0.00 0.00 0.00 0.00 0.00 0.00 0.00 0.00 0.00 0.00 0.00 0.00 0.00 0.00 0.01 0.02 0.06 0.12 0.14 0.13 0.12 0.10 0.09 0.09 0.10 0.10 0.08 0.08 0.09 0.10 0.11 0.09 0.06 0.06 0.06 0.06 0.07 0.08 0.08 0.11 0.13 0.14
0.12 0.10 0.06 0.02 0.01 0.00 0.00 0.00 0.00 0.00 0.00 0.00 0.00 0.00 0.00 0.00 0.00 0.00 0.00 0.00 0.00 0.01 0.03 0.07 0.15 0.15 0.13 0.13 0.11 0.10 0.10 0.11 0.09 0.08 0.07 0.07 0.07 0.07 0.07 0.06 0.07 0.08 0.08 0.08 0.07 0.07 0.08 0.10 0.13
0.15 0.11 0.04 0.01 0.01 0.01 0.00 0.00 0.00 0.00 0.00 0.00 0.00 0.00 0.00 0.00 0.00 0.00 0.00 0.00 0.01 0.02 0.04 0.08 0.14 0.16 0.17 0.16 0.14 0.12 0.12 0.12 0.09 0.09 0.09 0.07 0.06 0.05 0.05 0.04 0.06 0.07 0.07 0.08 0.07 0.06 0.06 0.07 0.08
0.21 0.19 0.08 0.02 0.01 0.00 0.01 0.01 0.01 0.01 0.00 0.00 0.00 0.00 0.00 0.00 0.00 0.00 0.01 0.01 0.02 0.03 0.05 0.08 0.12 0.13 0.15 0.17 0.15 0.14 0.14 0.14 0.12 0.10 0.09 0.06 0.05 0.06 0.04 0.03 0.04 0.05 0.06 0.08 0.08 0.07 0.07 0.06 0.05
0.32 0.31 0.13 0.03 0.02 0.01 0.00 0.01 0.02 0.02 0.02 0.01 0.01 0.01 0.00 0.01 0.01 0.01 0.02 0.04 0.05 0.06 0.08 0.10 0.12 0.13 0.14 0.15 0.14 0.15 0.16 0.15 0.15 0.12 0.09 0.07 0.05 0.04 0.03 0.02 0.03 0.03 0.05 0.06 0.06 0.07 0.07 0.05 0.03
0.41 0.30 0.11 0.04 0.03 0.03 0.02 0.02 0.02 0.03 0.03 0.03 0.02 0.01 0.01 0.01 0.02 0.02 0.03 0.04 0.05 0.06 0.09 0.11 0.12 0.14 0.17 0.17 0.17 0.17 0.17 0.15 0.14 0.09 0.07 0.07 0.05 0.03 0.02 0.02 0.03 0.04 0.06 0.07 0.08 0.07 0.05 0.04 0.03
0.35 0.24 0.10 0.05 0.06 0.07 0.05 0.03 0.02 0.04 0.04 0.04 0.04 0.03 0.02 0.03 0.03 0.02 0.02 0.03 0.04 0.05 0.09 0.12 0.14 0.15 0.18 0.19 0.18 0.17 0.16 0.14 0.13 0.08 0.06 0.06 0.05 0.03 0.01 0.02 0.02 0.02 0.03 0.05 0.09 0.11 0.12 0.14 0.13
0.29 0.19 0.11 0.07 0.08 0.11 0.10 0.07 0.04 0.03 0.03 0.04 0.06 0.04 0.03 0.03 0.03 0.03 0.03 0.03 0.05 0.07 0.11 0.13 0.16 0.18 0.20 0.21 0.20 0.17 0.14 0.13 0.11 0.08 0.06 0.05 0.04 0.02 0.01 0.01 0.01 0.01 0.01 0.02 0.03 0.07 0.14 0.19 0.20
0.27 0.19 0.12 0.08 0.08 0.10 0.11 0.10 0.08 0.04 0.02 0.03 0.04 0.05 0.05 0.04 0.04 0.03 0.04 0.05 0.06 0.08 0.12 0.16 0.19 0.20 0.22 0.25 0.23 0.20 0.17 0.13 0.10 0.08 0.06 0.03 0.02 0.02 0.01 0.01 0.01 0.01 0.01 0.01 0.01 0.01 0.03 0.08 0.12
0.25 0.22 0.19 0.13 0.09 0.09 0.11 0.10 0.09 0.05 0.02 0.02 0.04 0.05 0.05 0.05 0.06 0.06 0.07 0.07 0.08 0.10 0.15 0.17 0.20 0.20 0.21 0.24 0.24 0.20 0.19 0.17 0.13 0.09 0.06 0.04 0.03 0.02 0.02 0.01 0.01 0.01 0.01 0.01 0.00 0.00 0.00 0.00 0.01
0.26 0.30 0.25 0.16 0.11 0.09 0.13 0.13 0.08 0.04 0.03 0.04 0.04 0.04 0.04 0.04 0.05 0.06 0.07 0.08 0.08 0.10 0.15 0.20 0.20 0.20 0.21 0.23 0.26 0.26 0.22 0.19 0.16 0.10 0.07 0.05 0.03 0.02 0.02 0.02 0.02 0.01 0.01 0.00 0.00 0.00 0.00 0.00 0.00
0.35 0.40 0.33 0.19 0.13 0.12 0.20 0.15 0.05 0.04 0.05 0.06 0.05 0.04 0.04 0.04 0.04 0.05 0.06 0.08 0.10 0.12 0.15 0.22 0.22 0.22 0.23 0.23 0.27 0.29 0.29 0.22 0.17 0.13 0.09 0.06 0.04 0.02 0.02 0.02 0.02 0.01 0.01 0.01 0.01 0.01 0.01 0.01 0.00
0.51 0.43 0.28 0.19 0.16 0.17 0.21 0.15 0.05 0.04 0.06 0.07 0.05 0.04 0.04 0.04 0.04 0.04 0.05 0.07 0.11 0.13 0.17 0.23 0.25 0.23 0.24 0.26 0.26 0.30 0.32 0.28 0.21 0.15 0.12 0.08 0.05 0.03 0.02 0.02 0.02 0.01 0.01 0.01 0.01 0.01 0.00 0.01 0.00
0.50 0.34 0.22 0.18 0.15 0.16 0.19 0.13 0.05 0.03 0.05 0.05 0.06 0.06 0.04 0.04 0.05 0.04 0.05 0.06 0.09 0.15 0.21 0.24 0.29 0.28 0.27 0.32 0.32 0.32 0.35 0.30 0.23 0.16 0.12 0.09 0.06 0.04 0.02 0.02 0.01 0.01 0.01 0.01 0.01 0.01 0.00 0.00 0.01
0.32 0.29 0.23 0.16 0.14 0.14 0.14 0.11 0.05 0.03 0.04 0.05 0.04 0.05 0.05 0.03 0.04 0.07 0.07 0.07 0.10 0.14 0.22 0.26 0.29 0.35 0.34 0.35 0.36 0.32 0.31 0.29 0.24 0.17 0.13 0.10 0.07 0.04 0.02 0.02 0.01 0.01 0.01 0.01 0.01 0.00 0.01 0.01 0.01
0.39 0.37 0.27 0.17 0.14 0.17 0.14 0.09 0.04 0.03 0.04 0.04 0.04 0.03 0.04 0.04 0.04 0.08 0.09 0.09 0.11 0.12 0.15 0.21 0.25 0.30 0.32 0.33 0.35 0.34 0.29 0.27 0.25 0.19 0.14 0.12 0.09 0.05 0.03 0.02 0.02 0.02 0.02 0.01 0.00 0.01 0.02 0.02 0.01
0.46 0.38 0.26 0.19 0.17 0.19 0.19 0.14 0.05 0.02 0.03 0.03 0.03 0.03 0.04 0.04 0.05 0.07 0.09 0.08 0.10 0.12 0.13 0.14 0.19 0.25 0.28 0.31 0.37 0.43 0.42 0.35 0.29 0.23 0.17 0.13 0.11 0.06 0.03 0.03 0.02 0.02 0.02 0.01 0.01 0.02 0.04 0.04 0.02
0.44 0.25 0.21 0.22 0.29 0.31 0.24 0.23 0.05 0.02 0.02 0.02 0.03 0.03 0.04 0.04 0.06 0.07 0.09 0.10 0.09 0.11 0.11 0.13 0.16 0.22 0.28 0.31 0.34 0.41 0.47 0.38 0.27 0.23 0.18 0.16 0.11 0.08 0.04 0.03 0.03 0.02 0.02 0.02 0.02 0.03 0.04 0.08 0.09
0.32 0.22 0.24 0.28 0.35 0.36 0.24 0.24 0.08 0.03 0.02 0.02 0.01 0.02 0.02 0.03 0.05 0.07 0.10 0.11 0.10 0.14 0.15 0.14 0.17 0.20 0.28 0.31 0.31 0.34 0.38 0.40 0.32 0.26 0.22 0.20 0.15 0.10 0.06 0.05 0.03 0.02 0.02 0.02 0.03 0.04 0.05 0.08 0.11
0.28 0.32 0.39 0.41 0.57 0.60 0.21 0.17 0.12 0.07 0.04 0.02 0.01 0.01 0.03 0.03 0.05 0.07 0.11 0.14 0.13 0.18 0.21 0.17 0.18 0.20 0.26 0.33 0.33 0.35 0.35 0.38 0.40 0.33 0.27 0.24 0.19 0.13 0.09 0.06 0.04 0.02 0.02 0.03 0.04 0.05 0.06 0.06 0.08
0.47 0.66 0.96 0.96 0.90 0.50 0.10 0.12 0.14 0.08 0.04 0.03 0.02 0.02 0.03 0.04 0.05 0.07 0.11 0.15 0.15 0.18 0.21 0.17 0.16 0.19 0.22 0.30 0.35 0.34 0.33 0.32 0.35 0.37 0.32 0.26 0.22 0.15 0.09 0.08 0.05 0.03 0.03 0.03 0.04 0.06 0.06 0.06 0.08
0.47 0.57 0.74 0.67 0.40 0.14 0.06 0.10 0.11 0.08 0.03 0.02 0.03 0.02 0.02 0.03 0.05 0.08 0.10 0.12 0.13 0.16 0.18 0.15 0.14 0.17 0.17 0.22 0.32 0.38 0.35 0.31 0.30 0.32 0.34 0.30 0.24 0.16 0.09 0.08 0.07 0.05 0.04 0.04 0.05 0.06 0.06 0.07 0.10
0.34 0.37 0.34 0.43 0.27 0.15 0.10 0.07 0.07 0.05 0.02 0.02 0.03 0.03 0.02 0.03 0.04 0.06 0.08 0.08 0.08 0.13 0.15 0.13 0.14 0.18 0.19 0.16 0.22 0.37 0.43 0.34 0.27 0.26 0.28 0.30 0.26 0.20 0.12 0.09 0.07 0.06 0.06 0.06 0.07 0.08 0.09 0.11 0.12
0.29 0.34 0.45 0.60 0.47 0.23 0.10 0.08 0.13 0.09 0.06 0.04 0.03 0.03 0.03 0.03 0.04 0.04 0.06 0.06 0.06 0.10 0.13 0.11 0.12 0.18 0.21 0.18 0.17 0.24 0.44 0.45 0.31 0.25 0.24 0.25 0.24 0.21 0.14 0.11 0.09 0.06 0.06 0.07 0.09 0.10 0.11 0.14 0.15
0.34 0.44 0.58 0.61 0.41 0.27 0.15 0.11 0.15 0.13 0.08 0.05 0.04 0.03 0.02 0.02 0.03 0.03 0.04 0.04 0.05 0.08 0.12 0.10 0.08 0.14 0.22 0.18 0.14 0.16 0.30 0.49 0.44 0.30 0.24 0.22 0.23 0.21 0.16 0.13 0.12 0.10 0.10 0.11 0.13 0.12 0.14 0.17 0.19
0.34 0.38 0.44 0.53 0.40 0.20 0.14 0.09 0.06 0.06 0.06 0.05 0.04 0.03 0.02 0.02 0.02 0.03 0.03 0.04 0.03 0.05 0.09 0.09 0.07 0.11 0.19 0.19 0.15 0.15 0.19 0.35 0.49 0.40 0.29 0.23 0.21 0.20 0.17 0.14 0.14 0.16 0.16 0.17 0.18 0.18 0.17 0.20 0.22